Location: Kimberly
(42.5380°N, 114.3640°W)
Time: 07:58:29
(UTC-06:00)

Tiangong 2 - Visible Passes

Search period start: 22 May 2018 00:00
Search period end: 01 June 2018 00:00
Orbit: 382 x 385 km, 42.8° (Epoch: 22 May)

Date Brightness Start Highest point End Pass type
(mag) Time Alt. Az. Time Alt. Az. Time Alt. Az.
22 May 2.3 21:36:54 10° SSW 21:39:28 23° SSE 21:42:04 10° E visible
22 May 1.4 23:12:48 10° WSW 23:15:20 54° WSW 23:15:20 54° WSW visible
23 May 1.1 22:13:06 10° WSW 22:16:11 55° SSE 22:18:53 13° E visible
23 May 3.0 23:49:43 10° W 23:51:07 24° W 23:51:07 24° W visible
24 May 1.0 22:49:54 10° W 22:53:03 88° NNW 22:54:19 33° E visible
25 May 1.0 21:50:07 10° WSW 21:53:15 76° SSE 21:56:23 10° E visible
25 May 1.3 23:26:51 10° W 23:29:33 63° W 23:29:33 63° W visible
26 May 1.0 22:27:01 10° W 22:30:10 83° N 22:32:27 17° E visible
27 May 3.5 00:03:46 10° W 00:04:38 17° W 00:04:38 17° W visible
27 May 0.9 23:03:55 10° W 23:07:04 77° SSW 23:07:26 64° SE visible
28 May 1.0 22:04:05 10° W 22:07:14 88° N 22:10:11 11° E visible
28 May 2.9 23:40:54 10° W 23:42:23 23° WSW 23:42:23 23° WSW visible
29 May 1.2 22:40:59 10° W 22:44:05 57° SSW 22:45:06 35° SE visible
30 May 1.0 21:41:07 10° W 21:44:17 78° S 21:47:25 10° ESE visible
30 May 2.8 23:18:08 10° W 23:20:01 22° SW 23:20:01 22° SW visible
31 May 1.8 22:18:04 10° W 22:21:02 38° SSW 22:22:44 20° SE visible
